Regional Weather Roundup
Issued by NWS

Home | Current Version | Previous Version | Graphics & Text | Print | Product List | Glossary On
Versions: 1 2 3 4 5 6 7 8 9 10 11 12 13 14 15 16 17 18 19 20 21 22 23 24 25 26 27 28 29 30 31 32 33 34 35 36 37 38 39 40 41 42 43 44 45 46 47 48 49 50
000
ASUS43 KFSD 261702
RWRSD

WEATHER ROUNDUP FOR SOUTH DAKOTA
NATIONAL WEATHER SERVICE SIOUX FALLS SD
1200 PM CDT THU APR 26 2018

NOTE: "FAIR" INDICATES FEW OR NO CLOUDS BELOW 12,000 FEET WITH NO
SIGNIFICANT WEATHER AND/OR OBSTRUCTIONS TO VISIBILITY.


SDZ001>005-009-010-012>017-261800-
NORTHWEST AND NORTH CENTRAL SOUTH DAKOTA

CITY           SKY/WX    TMP DP  RH WIND       PRES   REMARKS
BUFFALO          N/A     55  28  35 NW12G17   30.16S
FAITH            N/A     58  30  34 NW18G25   30.19F
MOBRIDGE       SUNNY     58  32  37 VRB7      30.14S
$$

SDZ012>016-024>037-041>051-057-063-072>074-261800-
SOUTHWEST AND SOUTH CENTRAL SOUTH DAKOTA

CITY           SKY/WX    TMP DP  RH WIND       PRES   REMARKS
RAPID CTY ARPT SUNNY     56  30  37 N10       30.24S
PIERRE         SUNNY     59  29  31 NW15G24   30.16S
CUSTER         MOSUNNY   50  22  33 VRB7      30.24S
PHILIP           N/A     59  28  30 N16G23    30.21R
PINE RIDGE     SUNNY     57  30  35 NW17G23   30.24S
SPEARFISH      PTSUNNY   52  30  43 NW12      30.25S
WINNER         FAIR      60  27  28 N24G32    30.16R
$$

SDZ004>011-016>023-039-040-261800-
NORTHEAST SOUTH DAKOTA

CITY           SKY/WX    TMP DP  RH WIND       PRES   REMARKS
ABERDEEN       SUNNY     59  30  33 N20       30.11S
WATERTOWN      FAIR      55  28  35 N29G38    30.04R
BROOKINGS      FAIR      52  30  43 N29G38    30.02R
SISSETON         N/A     56  31  38 N29G37    30.04S
$$

SDZ017-020-022-023-036>040-048>070-261800-
SOUTHEAST SOUTH DAKOTA

CITY           SKY/WX    TMP DP  RH WIND       PRES   REMARKS
SIOUX FALLS    FAIR      57  31  37 N29G39    30.01R
HURON          SUNNY     57  29  34 N24G39    30.10R
CHAMBERLAIN    SUNNY     60  28  30 N22G29    30.14R
MITCHELL       SUNNY     58  31  35 N30G43    30.09R
YANKTON        FAIR      58  39  49 N18G32    30.03R
$$

ABBREVIATIONS USED IN REMARKS
   TC - TEMPERATURE IN CELSIUS
  WCI - WIND CHILL INDEX
   HX - HEAT INDEX
  VSB - VISIBILITY





USA.gov is the U.S. government's official web portal to all federal, state and local government web resources and services.